Year,Month,Day,Hour,Minute,Value (Times are PST for temperature in C)
2009,02,21,00,00,1.60
2009,02,21,00,01,1.60
2009,02,21,00,02,1.60
2009,02,21,00,03,1.70
2009,02,21,00,04,1.70
2009,02,21,00,05,1.70
2009,02,21,00,06,1.70
2009,02,21,00,07,1.70
2009,02,21,00,08,1.60
2009,02,21,00,09,1.60
2009,02,21,00,10,1.60
2009,02,21,00,11,1.50
2009,02,21,00,12,1.40
2009,02,21,00,13,1.30
2009,02,21,00,14,1.30
2009,02,21,00,15,1.30
2009,02,21,00,16,1.30
2009,02,21,00,17,1.20
2009,02,21,00,18,1.20
2009,02,21,00,19,1.20
2009,02,21,00,20,1.20
2009,02,21,00,21,1.20
2009,02,21,00,22,1.20
2009,02,21,00,23,1.10
2009,02,21,00,24,1.20
2009,02,21,00,25,1.20
2009,02,21,00,26,1.20
2009,02,21,00,27,1.20
2009,02,21,00,28,1.20
2009,02,21,00,29,1.20
2009,02,21,00,30,1.30
2009,02,21,00,31,1.30
2009,02,21,00,32,1.30
2009,02,21,00,33,1.30
2009,02,21,00,34,1.30
2009,02,21,00,35,1.30
2009,02,21,00,36,1.30
2009,02,21,00,37,1.30
2009,02,21,00,38,1.30
2009,02,21,00,39,1.30
2009,02,21,00,40,1.30
2009,02,21,00,41,1.30
2009,02,21,00,42,1.40
2009,02,21,00,43,1.50
2009,02,21,00,44,1.60
2009,02,21,00,45,1.60
2009,02,21,00,46,1.60
2009,02,21,00,47,1.60
2009,02,21,00,48,1.50
2009,02,21,00,49,1.50
2009,02,21,00,50,1.50
2009,02,21,00,51,1.50
2009,02,21,00,52,1.50
2009,02,21,00,53,1.50
2009,02,21,00,54,1.50
2009,02,21,00,55,1.40
2009,02,21,00,56,1.40
2009,02,21,00,57,1.40
2009,02,21,00,58,1.30
2009,02,21,00,59,1.30
2009,02,21,01,00,1.30
2009,02,21,01,01,1.30
2009,02,21,01,02,1.30
2009,02,21,01,03,1.30
2009,02,21,01,04,1.30
2009,02,21,01,05,1.30
2009,02,21,01,06,1.30
2009,02,21,01,07,1.30
2009,02,21,01,08,1.30
2009,02,21,01,09,1.30
2009,02,21,01,10,1.30
2009,02,21,01,11,1.30
2009,02,21,01,12,1.30
2009,02,21,01,13,1.30
2009,02,21,01,14,1.20
2009,02,21,01,15,1.20
2009,02,21,01,16,1.20
2009,02,21,01,17,1.20
2009,02,21,01,18,1.20
2009,02,21,01,19,1.20
2009,02,21,01,20,1.30
2009,02,21,01,21,1.30
2009,02,21,01,22,1.30
2009,02,21,01,23,1.30
2009,02,21,01,24,1.40
2009,02,21,01,25,1.50
2009,02,21,01,26,1.60
2009,02,21,01,27,1.60
2009,02,21,01,28,1.70
2009,02,21,01,29,1.80
2009,02,21,01,30,1.80
2009,02,21,01,31,1.80
2009,02,21,01,32,1.90
2009,02,21,01,33,1.90
2009,02,21,01,34,1.90
2009,02,21,01,35,1.90
2009,02,21,01,36,1.90
2009,02,21,01,37,1.90
2009,02,21,01,38,1.90
2009,02,21,01,39,1.80
2009,02,21,01,40,1.70
2009,02,21,01,41,1.70
2009,02,21,01,42,1.60
2009,02,21,01,43,1.50
2009,02,21,01,44,1.40
2009,02,21,01,45,1.30
2009,02,21,01,46,1.30
2009,02,21,01,47,1.30
2009,02,21,01,48,1.20
2009,02,21,01,49,1.20
2009,02,21,01,50,1.20
2009,02,21,01,51,1.20
2009,02,21,01,52,1.20
2009,02,21,01,53,1.10
2009,02,21,01,54,1.10
2009,02,21,01,55,1.10
2009,02,21,01,56,1.10
2009,02,21,01,57,1.10
2009,02,21,01,58,1.10
2009,02,21,01,59,1.10
2009,02,21,02,00,1.10
2009,02,21,02,01,1.20
2009,02,21,02,02,1.20
2009,02,21,02,03,1.30
2009,02,21,02,04,1.30
2009,02,21,02,05,1.30
2009,02,21,02,06,1.30
2009,02,21,02,07,1.40
2009,02,21,02,08,1.50
2009,02,21,02,09,1.60
2009,02,21,02,10,1.60
2009,02,21,02,11,1.70
2009,02,21,02,12,1.70
2009,02,21,02,13,1.80
2009,02,21,02,14,1.90
2009,02,21,02,15,1.90
2009,02,21,02,16,2.00
2009,02,21,02,17,2.00
2009,02,21,02,18,2.10
2009,02,21,02,19,2.10
2009,02,21,02,20,2.20
2009,02,21,02,21,2.20
2009,02,21,02,22,2.20
2009,02,21,02,23,2.20
2009,02,21,02,24,2.20
2009,02,21,02,25,2.20
2009,02,21,02,26,2.20
2009,02,21,02,27,2.20
2009,02,21,02,28,2.20
2009,02,21,02,29,2.20
2009,02,21,02,30,2.10
2009,02,21,02,31,2.20
2009,02,21,02,32,2.20
2009,02,21,02,33,2.20
2009,02,21,02,34,2.20
2009,02,21,02,35,2.20
2009,02,21,02,36,2.20
2009,02,21,02,37,2.20
2009,02,21,02,38,2.20
2009,02,21,02,39,2.20
2009,02,21,02,40,2.20
2009,02,21,02,41,2.20
2009,02,21,02,42,2.20
2009,02,21,02,43,2.20
2009,02,21,02,44,2.20
2009,02,21,02,45,2.20
2009,02,21,02,46,2.20
2009,02,21,02,47,2.20
2009,02,21,02,48,2.20
2009,02,21,02,49,2.20
2009,02,21,02,50,2.30
2009,02,21,02,51,2.30
2009,02,21,02,52,2.40
2009,02,21,02,53,2.40
2009,02,21,02,54,2.40
2009,02,21,02,55,2.50
2009,02,21,02,56,2.50
2009,02,21,02,57,2.60
2009,02,21,02,58,2.60
2009,02,21,02,59,2.60
2009,02,21,03,00,2.60
2009,02,21,03,01,2.60
2009,02,21,03,02,2.60
2009,02,21,03,03,2.50
2009,02,21,03,04,2.40
2009,02,21,03,05,2.40
2009,02,21,03,06,2.30
2009,02,21,03,07,2.30
2009,02,21,03,08,2.20
2009,02,21,03,09,2.20
2009,02,21,03,10,2.10
2009,02,21,03,11,2.10
2009,02,21,03,12,2.10
2009,02,21,03,13,2.10
2009,02,21,03,14,2.10
2009,02,21,03,15,2.10
2009,02,21,03,16,2.10
2009,02,21,03,17,2.10
2009,02,21,03,18,2.20
2009,02,21,03,19,2.20
2009,02,21,03,20,2.20
2009,02,21,03,21,2.20
2009,02,21,03,22,2.20
2009,02,21,03,23,2.20
2009,02,21,03,24,2.20
2009,02,21,03,25,2.30
2009,02,21,03,26,2.20
2009,02,21,03,27,2.20
2009,02,21,03,28,2.20
2009,02,21,03,29,2.20
2009,02,21,03,30,2.20
2009,02,21,04,02,2.10
2009,02,21,04,03,2.00
2009,02,21,04,04,2.00
2009,02,21,04,05,1.90
2009,02,21,04,06,1.90
2009,02,21,04,07,1.90
2009,02,21,04,08,1.90
2009,02,21,04,09,1.90
2009,02,21,04,10,1.90
2009,02,21,04,11,2.00
2009,02,21,04,12,2.00
2009,02,21,04,13,2.00
2009,02,21,04,14,2.10
2009,02,21,04,15,2.10
2009,02,21,04,16,2.10
2009,02,21,04,17,2.10
2009,02,21,04,18,2.10
2009,02,21,04,19,2.20
2009,02,21,04,20,2.20
2009,02,21,04,21,2.20
2009,02,21,04,22,2.20
2009,02,21,04,23,2.20
2009,02,21,04,24,2.20
2009,02,21,04,25,2.20
2009,02,21,04,26,2.20
2009,02,21,04,27,2.20
2009,02,21,04,28,2.20
2009,02,21,04,29,2.20
2009,02,21,04,30,2.10
2009,02,21,04,31,2.10
2009,02,21,04,32,2.10
2009,02,21,04,33,2.10
2009,02,21,04,34,2.10
2009,02,21,04,35,2.10
2009,02,21,04,36,2.10
2009,02,21,04,37,2.10
2009,02,21,04,38,2.10
2009,02,21,04,39,2.10
2009,02,21,04,40,2.10
2009,02,21,04,41,2.10
2009,02,21,04,42,2.10
2009,02,21,04,43,2.10
2009,02,21,04,44,2.10
2009,02,21,04,45,2.10
2009,02,21,04,46,2.10
2009,02,21,04,47,2.10
2009,02,21,04,48,2.10
2009,02,21,04,49,2.00
2009,02,21,04,50,2.00
2009,02,21,04,51,2.00
2009,02,21,04,52,1.90
2009,02,21,04,53,1.90
2009,02,21,04,54,1.90
2009,02,21,04,55,1.90
2009,02,21,04,56,1.90
2009,02,21,04,57,1.90
2009,02,21,04,58,1.90
2009,02,21,04,59,1.90
2009,02,21,05,00,1.90
2009,02,21,05,01,1.90
2009,02,21,05,02,1.90
2009,02,21,05,03,2.00
2009,02,21,05,04,2.00
2009,02,21,05,05,1.90
2009,02,21,05,06,1.90
2009,02,21,05,07,1.90
2009,02,21,05,08,2.00
2009,02,21,05,09,2.10
2009,02,21,05,10,2.20
2009,02,21,05,11,2.20
2009,02,21,05,12,2.20
2009,02,21,05,13,2.30
2009,02,21,05,14,2.30
2009,02,21,05,15,2.40
2009,02,21,05,16,2.50
2009,02,21,05,17,2.50
2009,02,21,05,18,2.60
2009,02,21,05,19,2.60
2009,02,21,05,20,2.60
2009,02,21,05,21,2.60
2009,02,21,05,22,2.60
2009,02,21,05,23,2.50
2009,02,21,05,24,2.40
2009,02,21,05,25,2.30
2009,02,21,05,26,2.30
2009,02,21,05,27,2.30
2009,02,21,05,28,2.20
2009,02,21,05,29,2.20
2009,02,21,05,30,2.20
2009,02,21,05,31,2.20
2009,02,21,05,32,2.20
2009,02,21,05,33,2.20
2009,02,21,05,34,2.30
2009,02,21,05,35,2.30
2009,02,21,05,36,2.30
2009,02,21,05,37,2.40
2009,02,21,05,38,2.40
2009,02,21,05,39,2.40
2009,02,21,05,40,2.40
2009,02,21,05,41,2.40
2009,02,21,05,42,2.40
2009,02,21,05,43,2.40
2009,02,21,05,44,2.40
2009,02,21,05,45,2.30
2009,02,21,05,46,2.30
2009,02,21,05,47,2.30
2009,02,21,05,48,2.30
2009,02,21,05,49,2.30
2009,02,21,05,50,2.30
2009,02,21,05,51,2.30
2009,02,21,05,52,2.30
2009,02,21,05,53,2.30
2009,02,21,05,54,2.30
2009,02,21,05,55,2.30
2009,02,21,05,56,2.40
2009,02,21,05,57,2.40
2009,02,21,05,58,2.40
2009,02,21,05,59,2.40
2009,02,21,06,00,2.40
2009,02,21,06,01,2.40
2009,02,21,06,02,2.30
2009,02,21,06,03,2.30
2009,02,21,06,04,2.30
2009,02,21,06,05,2.40
2009,02,21,06,06,2.50
2009,02,21,06,07,2.60
2009,02,21,06,08,2.70
2009,02,21,06,09,2.80
2009,02,21,06,10,2.90
2009,02,21,06,11,2.90
2009,02,21,06,12,2.90
2009,02,21,06,13,2.80
2009,02,21,06,14,2.80
2009,02,21,06,15,2.70
2009,02,21,06,16,2.70
2009,02,21,06,17,2.60
2009,02,21,06,18,2.40
2009,02,21,06,19,2.30
2009,02,21,06,20,2.30
2009,02,21,06,21,2.20
2009,02,21,06,22,2.20
2009,02,21,06,23,2.20
2009,02,21,06,24,2.20
2009,02,21,06,25,2.20
2009,02,21,06,26,2.20
2009,02,21,06,27,2.20
2009,02,21,06,28,2.20
2009,02,21,06,29,2.10
2009,02,21,06,30,2.00
2009,02,21,06,31,1.90
2009,02,21,06,32,1.80
2009,02,21,06,33,1.80
2009,02,21,06,34,1.70
2009,02,21,06,35,1.70
2009,02,21,06,36,1.70
2009,02,21,06,37,1.70
2009,02,21,06,38,1.70
2009,02,21,06,39,1.60
2009,02,21,06,40,1.60
2009,02,21,06,41,1.60
2009,02,21,06,42,1.60
2009,02,21,06,43,1.60
2009,02,21,06,44,1.60
2009,02,21,06,45,1.60
2009,02,21,06,46,1.60
2009,02,21,06,47,1.60
2009,02,21,06,48,1.60
2009,02,21,06,49,1.60
2009,02,21,06,50,1.60
2009,02,21,06,51,1.60
2009,02,21,06,52,1.70
2009,02,21,06,53,1.70
2009,02,21,06,54,1.80
2009,02,21,06,55,1.80
2009,02,21,06,56,1.80
2009,02,21,06,57,1.80
2009,02,21,06,58,1.80
2009,02,21,06,59,1.80
2009,02,21,07,00,1.80
2009,02,21,07,01,1.80
2009,02,21,07,02,1.80
2009,02,21,07,03,1.90
2009,02,21,07,04,2.00
2009,02,21,07,05,2.00
2009,02,21,07,06,2.10
2009,02,21,07,07,2.20
2009,02,21,07,08,2.30
2009,02,21,07,09,2.30
2009,02,21,07,10,2.40
2009,02,21,07,11,2.40
2009,02,21,07,12,2.50
2009,02,21,07,13,2.50
2009,02,21,07,14,2.50
2009,02,21,07,15,2.50
2009,02,21,07,16,2.40
2009,02,21,07,17,2.40
2009,02,21,07,18,2.30
2009,02,21,07,19,2.30
2009,02,21,07,20,2.20
2009,02,21,07,21,2.10
2009,02,21,07,22,2.00
2009,02,21,07,23,2.00
2009,02,21,07,24,1.90
2009,02,21,07,25,1.90
2009,02,21,07,26,1.90
2009,02,21,07,27,1.90
2009,02,21,07,28,1.90
2009,02,21,07,29,1.90
2009,02,21,07,30,1.90
2009,02,21,07,31,1.90
2009,02,21,07,32,1.90
2009,02,21,07,33,2.00
2009,02,21,07,34,2.00
2009,02,21,07,35,2.10
2009,02,21,07,36,2.10
2009,02,21,07,37,2.10
2009,02,21,07,38,2.20
2009,02,21,07,39,2.20
2009,02,21,07,40,2.20
2009,02,21,07,41,2.20
2009,02,21,07,42,2.20
2009,02,21,07,43,2.30
2009,02,21,07,44,2.30
2009,02,21,07,45,2.30
2009,02,21,07,46,2.40
2009,02,21,07,47,2.40
2009,02,21,07,48,2.50
2009,02,21,07,49,2.50
2009,02,21,07,50,2.50
2009,02,21,07,51,2.60
2009,02,21,07,52,2.60
2009,02,21,07,53,2.60
2009,02,21,07,54,2.60
2009,02,21,07,55,2.70
2009,02,21,07,56,2.70
2009,02,21,07,57,2.70
2009,02,21,07,58,2.80
2009,02,21,07,59,2.80
2009,02,21,08,00,2.90
2009,02,21,08,01,2.90
2009,02,21,08,02,3.00
2009,02,21,08,03,3.00
2009,02,21,08,04,3.10
2009,02,21,08,05,3.20
2009,02,21,08,06,3.20
2009,02,21,08,07,3.20
2009,02,21,08,08,3.30
2009,02,21,08,09,3.30
2009,02,21,08,10,3.40
2009,02,21,08,11,3.50
2009,02,21,08,12,3.50
2009,02,21,08,13,3.60
2009,02,21,08,14,3.60
2009,02,21,08,15,3.70
2009,02,21,08,16,3.70
2009,02,21,08,17,3.80
2009,02,21,08,18,3.80
2009,02,21,08,19,3.80
2009,02,21,08,20,3.80
2009,02,21,08,21,3.90
2009,02,21,08,22,3.90
2009,02,21,08,23,3.90
2009,02,21,08,24,4.00
2009,02,21,08,25,4.00
2009,02,21,08,26,4.10
2009,02,21,08,27,4.10
2009,02,21,08,28,4.10
2009,02,21,08,29,4.10
2009,02,21,08,30,4.10
2009,02,21,08,31,4.10
2009,02,21,08,32,4.20
2009,02,21,08,33,4.20
2009,02,21,08,34,4.20
2009,02,21,08,35,4.20
2009,02,21,08,36,4.30
2009,02,21,08,37,4.30
2009,02,21,08,38,4.30
2009,02,21,08,39,4.40
2009,02,21,08,40,4.40
2009,02,21,08,41,4.40
2009,02,21,08,42,4.50
2009,02,21,08,43,4.60
2009,02,21,08,44,4.60
2009,02,21,08,45,4.70
2009,02,21,08,46,4.70
2009,02,21,08,47,4.80
2009,02,21,08,48,4.90
2009,02,21,08,49,5.00
2009,02,21,08,50,5.10
2009,02,21,08,51,5.20
2009,02,21,08,52,5.30
2009,02,21,08,53,5.40
2009,02,21,08,54,5.40
2009,02,21,08,55,5.50
2009,02,21,08,56,5.60
2009,02,21,08,57,5.60
2009,02,21,08,58,5.70
2009,02,21,08,59,5.70
2009,02,21,09,00,5.80
2009,02,21,09,01,5.80
2009,02,21,09,02,5.90
2009,02,21,09,03,5.90
2009,02,21,09,04,6.00
2009,02,21,09,05,6.10
2009,02,21,09,06,6.10
2009,02,21,09,07,6.20
2009,02,21,09,08,6.30
2009,02,21,09,09,6.30
2009,02,21,09,10,6.40
2009,02,21,09,11,6.50
2009,02,21,09,12,6.60
2009,02,21,09,13,6.70
2009,02,21,09,14,6.80
2009,02,21,09,15,6.80
2009,02,21,09,16,6.90
2009,02,21,09,17,6.90
2009,02,21,09,18,6.90
2009,02,21,09,19,6.90
2009,02,21,09,20,6.90
2009,02,21,09,21,6.90
2009,02,21,09,22,7.00
2009,02,21,09,23,7.00
2009,02,21,09,24,7.10
2009,02,21,09,25,7.10
2009,02,21,09,26,7.10
2009,02,21,09,27,7.10
2009,02,21,09,28,7.10
2009,02,21,09,29,7.10
2009,02,21,09,30,7.10
2009,02,21,09,31,7.00
2009,02,21,09,32,7.00
2009,02,21,09,33,7.00
2009,02,21,09,34,6.90
2009,02,21,09,35,6.90
2009,02,21,09,36,6.90
2009,02,21,09,37,6.90
2009,02,21,09,38,6.90
2009,02,21,09,39,6.80
2009,02,21,09,40,6.80
2009,02,21,09,41,6.80
2009,02,21,09,42,6.90
2009,02,21,09,43,6.90
2009,02,21,09,44,7.00
2009,02,21,09,45,7.00
2009,02,21,09,46,7.00
2009,02,21,09,47,7.10
2009,02,21,09,48,7.10
2009,02,21,09,49,7.10
2009,02,21,09,50,7.10
2009,02,21,09,51,7.10
2009,02,21,09,52,7.10
2009,02,21,09,53,7.00
2009,02,21,09,54,7.00
2009,02,21,09,55,6.90
2009,02,21,09,56,6.90
2009,02,21,09,57,6.90
2009,02,21,09,58,6.90
2009,02,21,09,59,6.80
2009,02,21,10,00,6.80
2009,02,21,10,01,6.80
2009,02,21,10,02,6.80
2009,02,21,10,03,6.80
2009,02,21,10,04,6.80
2009,02,21,10,05,6.80
2009,02,21,10,06,6.80
2009,02,21,10,07,6.80
2009,02,21,10,08,6.80
2009,02,21,10,09,6.80
2009,02,21,10,10,6.80
2009,02,21,10,11,6.90
2009,02,21,10,12,6.90
2009,02,21,10,13,6.90
2009,02,21,10,14,6.90
2009,02,21,10,15,6.90
2009,02,21,10,16,6.90
2009,02,21,10,17,7.00
2009,02,21,10,18,7.10
2009,02,21,10,19,7.10
2009,02,21,10,20,7.20
2009,02,21,10,21,7.20
2009,02,21,10,22,7.20
2009,02,21,10,23,7.30
2009,02,21,10,24,7.20
2009,02,21,10,25,7.30
2009,02,21,10,26,7.30
2009,02,21,10,27,7.30
2009,02,21,10,28,7.30
2009,02,21,10,29,7.40
2009,02,21,10,30,7.40
2009,02,21,10,31,7.50
2009,02,21,10,32,7.50
2009,02,21,10,33,7.60
2009,02,21,10,34,7.70
2009,02,21,10,35,7.70
2009,02,21,10,36,7.70
2009,02,21,10,37,7.80
2009,02,21,10,38,7.80
2009,02,21,10,39,7.80
2009,02,21,10,40,7.80
2009,02,21,10,41,7.80
2009,02,21,10,42,7.90
2009,02,21,10,43,7.90
2009,02,21,10,44,7.90
2009,02,21,10,45,7.90
2009,02,21,10,46,7.90
2009,02,21,10,47,7.90
2009,02,21,10,48,7.90
2009,02,21,10,49,7.90
2009,02,21,10,50,7.90
2009,02,21,10,51,7.80
2009,02,21,10,52,7.80
2009,02,21,10,53,7.80
2009,02,21,10,54,7.80
2009,02,21,10,55,7.80
2009,02,21,10,56,7.80
2009,02,21,10,57,7.90
2009,02,21,10,58,7.90
2009,02,21,10,59,7.90
2009,02,21,11,00,7.90
2009,02,21,11,01,8.00
2009,02,21,11,02,8.00
2009,02,21,11,03,8.10
2009,02,21,11,04,8.10
2009,02,21,11,05,8.10
2009,02,21,11,06,8.10
2009,02,21,11,07,8.10
2009,02,21,11,08,8.10
2009,02,21,11,09,8.20
2009,02,21,11,10,8.20
2009,02,21,11,11,8.20
2009,02,21,11,12,8.20
2009,02,21,11,13,8.20
2009,02,21,11,14,8.20
2009,02,21,11,15,8.20
2009,02,21,11,16,8.30
2009,02,21,11,17,8.30
2009,02,21,11,18,8.30
2009,02,21,11,19,8.30
2009,02,21,11,20,8.30
2009,02,21,11,21,8.40
2009,02,21,11,22,8.40
2009,02,21,11,23,8.40
2009,02,21,11,24,8.40
2009,02,21,11,25,8.40
2009,02,21,11,26,8.40
2009,02,21,11,27,8.40
2009,02,21,11,28,8.40
2009,02,21,11,29,8.40
2009,02,21,11,30,8.40
2009,02,21,11,31,8.40
2009,02,21,11,32,8.50
2009,02,21,11,33,8.50
2009,02,21,11,34,8.50
2009,02,21,11,35,8.60
2009,02,21,11,36,8.60
2009,02,21,11,37,8.60
2009,02,21,11,38,8.70
2009,02,21,11,39,8.80
2009,02,21,11,40,8.80
2009,02,21,11,41,8.80
2009,02,21,11,42,8.80
2009,02,21,11,43,8.90
2009,02,21,11,44,8.90
2009,02,21,11,45,8.90
2009,02,21,11,46,8.90
2009,02,21,11,47,8.90
2009,02,21,11,48,8.90
2009,02,21,11,49,9.00
2009,02,21,11,50,9.10
2009,02,21,11,51,9.10
2009,02,21,11,52,9.20
2009,02,21,11,53,9.30
2009,02,21,11,54,9.30
2009,02,21,11,55,9.40
2009,02,21,11,56,9.40
2009,02,21,11,57,9.40
2009,02,21,11,58,9.40
2009,02,21,11,59,9.40
2009,02,21,12,00,9.40
2009,02,21,12,01,9.40
2009,02,21,12,02,9.30
2009,02,21,12,03,9.30
2009,02,21,12,04,9.30
2009,02,21,12,05,9.30
2009,02,21,12,06,9.30
2009,02,21,12,07,9.20
2009,02,21,12,08,9.20
2009,02,21,12,09,9.20
2009,02,21,12,10,9.20
2009,02,21,12,11,9.30
2009,02,21,12,12,9.30
2009,02,21,12,13,9.30
2009,02,21,12,14,9.30
2009,02,21,12,15,9.30
2009,02,21,12,16,9.30
2009,02,21,12,17,9.30
2009,02,21,12,18,9.30
2009,02,21,12,19,9.30
2009,02,21,12,20,9.30
2009,02,21,12,21,9.30
2009,02,21,12,22,9.30
2009,02,21,12,23,9.30
2009,02,21,12,24,9.30
2009,02,21,12,25,9.30
2009,02,21,12,26,9.30
2009,02,21,12,27,9.30
2009,02,21,12,28,9.30
2009,02,21,12,29,9.30
2009,02,21,12,30,9.20
2009,02,21,12,31,9.20
2009,02,21,12,32,9.20
2009,02,21,12,33,9.20
2009,02,21,12,34,9.20
2009,02,21,12,35,9.10
2009,02,21,12,36,9.10
2009,02,21,12,37,9.10
2009,02,21,12,38,9.00
2009,02,21,12,39,8.90
2009,02,21,12,40,8.90
2009,02,21,12,41,8.90
2009,02,21,12,42,8.90
2009,02,21,12,43,8.90
2009,02,21,12,44,8.90
2009,02,21,12,45,8.90
2009,02,21,12,46,8.90
2009,02,21,12,47,8.90
2009,02,21,12,48,8.90
2009,02,21,12,49,9.00
2009,02,21,12,50,9.00
2009,02,21,12,51,9.00
2009,02,21,12,52,9.00
2009,02,21,12,53,9.00
2009,02,21,12,54,9.10
2009,02,21,12,55,9.10
2009,02,21,12,56,9.10
2009,02,21,12,57,9.10
2009,02,21,12,58,9.10
2009,02,21,12,59,9.10
2009,02,21,13,00,9.20
2009,02,21,13,01,9.20
2009,02,21,13,02,9.20
2009,02,21,13,03,9.30
2009,02,21,13,04,9.30
2009,02,21,13,05,9.30
2009,02,21,13,06,9.30
2009,02,21,13,07,9.20
2009,02,21,13,08,9.20
2009,02,21,13,09,9.20
2009,02,21,13,10,9.20
2009,02,21,13,11,9.20
2009,02,21,13,12,9.20
2009,02,21,13,13,9.20
2009,02,21,13,14,9.20
2009,02,21,13,15,9.10
2009,02,21,13,16,9.10
2009,02,21,13,17,9.00
2009,02,21,13,18,9.00
2009,02,21,13,19,9.00
2009,02,21,13,20,9.00
2009,02,21,13,21,9.00
2009,02,21,13,22,9.10
2009,02,21,13,23,9.10
2009,02,21,13,24,9.10
2009,02,21,13,25,9.10
2009,02,21,13,26,9.10
2009,02,21,13,27,9.10
2009,02,21,13,28,9.00
2009,02,21,13,29,9.00
2009,02,21,13,30,9.00
2009,02,21,13,31,9.10
2009,02,21,13,32,9.00
2009,02,21,13,33,9.10
2009,02,21,13,34,9.10
2009,02,21,13,35,9.10
2009,02,21,13,36,9.10
2009,02,21,13,37,9.10
2009,02,21,13,38,9.10
2009,02,21,13,39,9.10
2009,02,21,13,40,9.10
2009,02,21,13,41,9.10
2009,02,21,13,42,9.10
2009,02,21,13,43,9.10
2009,02,21,13,44,9.10
2009,02,21,13,45,9.10
2009,02,21,13,46,9.10
2009,02,21,13,47,9.20
2009,02,21,13,48,9.20
2009,02,21,13,49,9.20
2009,02,21,13,50,9.20
2009,02,21,13,51,9.20
2009,02,21,13,52,9.20
2009,02,21,13,53,9.20
2009,02,21,13,54,9.20
2009,02,21,13,55,9.30
2009,02,21,13,56,9.30
2009,02,21,13,57,9.30
2009,02,21,13,58,9.30
2009,02,21,13,59,9.30
2009,02,21,14,00,9.30
2009,02,21,14,01,9.30
2009,02,21,14,02,9.30
2009,02,21,14,03,9.40
2009,02,21,14,04,9.40
2009,02,21,14,05,9.40
2009,02,21,14,06,9.40
2009,02,21,14,07,9.50
2009,02,21,14,08,9.50
2009,02,21,14,09,9.60
2009,02,21,14,10,9.60
2009,02,21,14,11,9.60
2009,02,21,14,12,9.60
2009,02,21,14,13,9.50
2009,02,21,14,14,9.50
2009,02,21,14,15,9.50
2009,02,21,14,16,9.60
2009,02,21,14,17,9.60
2009,02,21,14,18,9.60
2009,02,21,14,19,9.60
2009,02,21,14,20,9.60
2009,02,21,14,21,9.70
2009,02,21,14,22,9.70
2009,02,21,14,23,9.70
2009,02,21,14,24,9.70
2009,02,21,14,25,9.70
2009,02,21,14,26,9.70
2009,02,21,14,27,9.70
2009,02,21,14,28,9.70
2009,02,21,14,29,9.80
2009,02,21,14,30,9.80
2009,02,21,14,31,9.80
2009,02,21,14,32,9.80
2009,02,21,14,33,9.80
2009,02,21,14,34,9.90
2009,02,21,14,35,9.90
2009,02,21,14,36,10.00
2009,02,21,14,37,10.00
2009,02,21,14,38,10.10
2009,02,21,14,39,10.10
2009,02,21,14,40,10.10
2009,02,21,14,41,10.20
2009,02,21,14,42,10.20
2009,02,21,14,43,10.20
2009,02,21,14,44,10.30
2009,02,21,14,45,10.30
2009,02,21,14,46,10.30
2009,02,21,14,47,10.30
2009,02,21,14,48,10.30
2009,02,21,14,49,10.30
2009,02,21,14,50,10.30
2009,02,21,14,51,10.30
2009,02,21,14,52,10.30
2009,02,21,14,53,10.30
2009,02,21,14,54,10.30
2009,02,21,14,55,10.30
2009,02,21,14,56,10.40
2009,02,21,14,57,10.40
2009,02,21,14,58,10.40
2009,02,21,14,59,10.30
2009,02,21,15,00,10.30
2009,02,21,15,01,10.30
2009,02,21,15,02,10.30
2009,02,21,15,03,10.30
2009,02,21,15,04,10.30
2009,02,21,15,05,10.20
2009,02,21,15,06,10.20
2009,02,21,15,07,10.20
2009,02,21,15,08,10.20
2009,02,21,15,09,10.20
2009,02,21,15,10,10.20
2009,02,21,15,11,10.20
2009,02,21,15,12,10.20
2009,02,21,15,13,10.20
2009,02,21,15,14,10.20
2009,02,21,15,15,10.20
2009,02,21,15,16,10.20
2009,02,21,15,17,10.20
2009,02,21,15,18,10.10
2009,02,21,15,19,10.10
2009,02,21,15,20,10.10
2009,02,21,15,21,10.20
2009,02,21,15,22,10.20
2009,02,21,15,23,10.20
2009,02,21,15,24,10.20
2009,02,21,15,25,10.20
2009,02,21,15,26,10.20
2009,02,21,15,27,10.20
2009,02,21,15,28,10.20
2009,02,21,15,29,10.20
2009,02,21,15,30,10.30
2009,02,21,15,31,10.30
2009,02,21,15,32,10.30
2009,02,21,15,33,10.30
2009,02,21,15,34,10.30
2009,02,21,15,35,10.30
2009,02,21,15,36,10.30
2009,02,21,15,37,10.30
2009,02,21,15,38,10.30
2009,02,21,15,39,10.20
2009,02,21,15,40,10.20
2009,02,21,15,41,10.20
2009,02,21,15,42,10.20
2009,02,21,15,43,10.20
2009,02,21,15,44,10.20
2009,02,21,15,45,10.10
2009,02,21,15,46,10.10
2009,02,21,15,47,10.10
2009,02,21,15,48,10.00
2009,02,21,15,49,10.00
2009,02,21,15,50,9.90
2009,02,21,15,51,9.90
2009,02,21,15,52,9.90
2009,02,21,15,53,9.90
2009,02,21,15,54,9.80
2009,02,21,15,55,9.80
2009,02,21,15,56,9.80
2009,02,21,15,57,9.80
2009,02,21,15,58,9.80
2009,02,21,15,59,9.70
2009,02,21,16,00,9.70
2009,02,21,16,01,9.70
2009,02,21,16,02,9.70
2009,02,21,16,03,9.70
2009,02,21,16,04,9.70
2009,02,21,16,05,9.70
2009,02,21,16,06,9.70
2009,02,21,16,07,9.70
2009,02,21,16,08,9.70
2009,02,21,16,09,9.70
2009,02,21,16,10,9.70
2009,02,21,16,11,9.70
2009,02,21,16,12,9.70
2009,02,21,16,13,9.60
2009,02,21,16,14,9.60
2009,02,21,16,15,9.60
2009,02,21,16,16,9.60
2009,02,21,16,17,9.60
2009,02,21,16,18,9.60
2009,02,21,16,19,9.60
2009,02,21,16,20,9.60
2009,02,21,16,21,9.60
2009,02,21,16,22,9.60
2009,02,21,16,23,9.60
2009,02,21,16,24,9.50
2009,02,21,16,25,9.60
2009,02,21,16,26,9.60
2009,02,21,16,27,9.60
2009,02,21,16,28,9.60
2009,02,21,16,29,9.60
2009,02,21,16,30,9.50
2009,02,21,16,31,9.50
2009,02,21,16,32,9.50
2009,02,21,16,33,9.50
2009,02,21,16,34,9.40
2009,02,21,16,35,9.40
2009,02,21,16,36,9.40
2009,02,21,16,37,9.40
2009,02,21,16,38,9.30
2009,02,21,16,39,9.30
2009,02,21,16,40,9.30
2009,02,21,16,41,9.30
2009,02,21,16,42,9.20
2009,02,21,16,43,9.20
2009,02,21,16,44,9.20
2009,02,21,16,45,9.20
2009,02,21,16,46,9.20
2009,02,21,16,47,9.20
2009,02,21,16,48,9.20
2009,02,21,16,49,9.20
2009,02,21,16,50,9.20
2009,02,21,16,51,9.20
2009,02,21,16,52,9.20
2009,02,21,16,53,9.10
2009,02,21,16,54,9.10
2009,02,21,16,55,9.10
2009,02,21,16,56,9.10
2009,02,21,16,57,9.10
2009,02,21,16,58,9.10
2009,02,21,16,59,9.10
2009,02,21,17,00,9.10
2009,02,21,17,01,9.10
2009,02,21,17,02,9.10
2009,02,21,17,03,9.10
2009,02,21,17,04,9.10
2009,02,21,17,05,9.10
2009,02,21,17,06,9.10
2009,02,21,17,07,9.00
2009,02,21,17,08,9.00
2009,02,21,17,09,9.00
2009,02,21,17,10,9.00
2009,02,21,17,11,8.90
2009,02,21,17,12,8.90
2009,02,21,17,13,8.90
2009,02,21,17,14,8.90
2009,02,21,17,15,8.90
2009,02,21,17,16,8.80
2009,02,21,17,17,8.80
2009,02,21,17,18,8.80
2009,02,21,17,19,8.80
2009,02,21,17,20,8.80
2009,02,21,17,21,8.80
2009,02,21,17,22,8.80
2009,02,21,17,23,8.70
2009,02,21,17,24,8.70
2009,02,21,17,25,8.70
2009,02,21,17,26,8.70
2009,02,21,17,27,8.70
2009,02,21,17,28,8.70
2009,02,21,17,29,8.70
2009,02,21,17,30,8.70
2009,02,21,17,31,8.60
2009,02,21,17,32,8.60
2009,02,21,17,33,8.60
2009,02,21,17,34,8.60
2009,02,21,17,35,8.60
2009,02,21,17,36,8.60
2009,02,21,17,37,8.60
2009,02,21,17,38,8.60
2009,02,21,17,39,8.60
2009,02,21,17,40,8.60
2009,02,21,17,41,8.50
2009,02,21,17,42,8.50
2009,02,21,17,43,8.50
2009,02,21,17,44,8.40
2009,02,21,17,45,8.40
2009,02,21,17,46,8.40
2009,02,21,17,47,8.30
2009,02,21,17,48,8.30
2009,02,21,17,49,8.30
2009,02,21,17,50,8.20
2009,02,21,17,51,8.20
2009,02,21,17,52,8.20
2009,02,21,17,53,8.20
2009,02,21,17,54,8.20
2009,02,21,17,55,8.20
2009,02,21,17,56,8.10
2009,02,21,17,57,8.10
2009,02,21,17,58,8.10
2009,02,21,17,59,8.10
2009,02,21,18,00,8.10
2009,02,21,18,01,8.10
2009,02,21,18,02,8.10
2009,02,21,18,03,8.00
2009,02,21,18,04,8.00
2009,02,21,18,05,8.00
2009,02,21,18,06,8.00
2009,02,21,18,07,8.00
2009,02,21,18,08,7.90
2009,02,21,18,09,7.90
2009,02,21,18,10,7.90
2009,02,21,18,11,8.00
2009,02,21,18,12,8.00
2009,02,21,18,13,8.00
2009,02,21,18,14,8.00
2009,02,21,18,15,8.00
2009,02,21,18,16,7.90
2009,02,21,18,17,7.90
2009,02,21,18,18,7.90
2009,02,21,18,19,7.90
2009,02,21,18,20,7.90
2009,02,21,18,21,7.90
2009,02,21,18,22,7.90
2009,02,21,18,23,7.90
2009,02,21,18,24,7.90
2009,02,21,18,25,7.90
2009,02,21,18,26,7.90
2009,02,21,18,27,7.80
2009,02,21,18,28,7.80
2009,02,21,18,29,7.80
2009,02,21,18,30,7.80
2009,02,21,18,31,7.80
2009,02,21,18,32,7.80
2009,02,21,18,33,7.80
2009,02,21,18,34,7.80